GW3255 Weather Reports


time (UTC)temp
C
wind
direction
speed
KPH
gust
KPH
rain 1hr
cm
rain 24hr
cm
rain mn
cm
humidity
%
barometer
mb
20260507020005 15 186 0.0 6.4 0.08 0.58 0.58 88 1010.0
20260507014511 15 18 3.2 11.3 0.15 0.58 0.58 87 1010.0
20260507013012 16 302 4.8 9.7 0.13 0.56 0.56 88 1010.1
20260507011508 16 156 1.6 4.8 0.13 0.56 0.56 88 1009.7
20260507010010 16 260 0.0 6.4 0.08 0.51 0.51 87 1009.9
20260507004529 17 144 0.0 1.6 0.00 0.43 0.43 88 1009.5
20260507003008 17 239 0.0 1.6 0.00 0.43 0.43 87 1009.6
20260507001511 17 88 0.0 3.2 0.00 0.43 0.43 87 1009.1
20260507000008 17 248 0.0 1.6 0.00 0.43 0.43 86 1008.9
20260506234511 17 248 0.0 1.6 0.00 0.43 0.43 84 1008.7
20260506233013 18 235 0.0 3.2 0.00 0.43 0.43 82 1008.6
20260506231511 18 229 3.2 6.4 0.00 0.43 0.43 81 1008.6
20260506230022 18 262 3.2 8.0 0.00 0.43 0.43 81 1008.5
20260506224512 18 259 6.4 14.5 0.00 0.43 0.43 80 1008.6
20260506223011 18 251 9.7 17.7 0.00 0.43 0.43 79 1008.6
20260506221513 18 264 8.0 11.3 0.00 0.43 0.43 80 1008.6
20260506220017 18 263 4.8 11.3 0.00 0.43 0.43 80 1008.4
20260506214515 18 263 4.8 8.0 0.00 0.43 0.43 80 1008.2
20260506213016 18 248 4.8 11.3 0.00 0.43 0.43 80 1008.0
20260506211517 18 152 1.6 11.3 0.00 0.43 0.43 81 1007.9
20260506210020 18 238 4.8 9.7 0.00 0.43 0.43 81 1007.8
20260506204518 18 264 6.4 12.9 0.00 0.43 0.43 81 1007.9
20260506203017 18 267 4.8 14.5 0.00 0.43 0.43 81 1007.9
20260506201527 18 266 4.8 11.3 0.00 0.43 0.43 82 1007.8
20260506200018 18 238 6.4 12.9 0.00 0.43 0.43 83 1007.8
20260506194507 17 260 6.4 11.3 0.00 0.43 0.43 84 1008.0
20260506193004 17 263 8.0 11.3 0.00 0.43 0.43 84 1008.2
20260506191519 17 262 12.9 19.3 0.00 0.43 0.43 83 1008.2
20260506190027 17 276 14.5 20.9 0.00 0.43 0.43 84 1008.3
20260506184520 17 249 11.3 22.5 0.00 0.43 0.43 86 1008.3
20260506183012 16 236 9.7 19.3 0.00 0.43 0.43 88 1008.4
20260506181512 16 260 8.0 19.3 0.00 0.43 0.43 89 1008.7
20260506180014 15 268 8.0 19.3 0.00 0.43 0.43 89 1008.8
20260506174521 15 234 11.3 17.7 0.00 0.43 0.43 89 1009.0
20260506173024 15 249 11.3 17.7 0.00 0.43 0.43 89 1008.8
20260506171537 15 229 12.9 20.9 0.00 0.43 0.43 89 1008.9
20260506170020 15 240 16.1 27.4 0.03 0.43 0.43 89 1008.9
20260506164517 15 239 12.9 25.7 0.03 0.43 0.43 89 1008.9
20260506163014 15 234 12.9 24.1 0.08 0.43 0.43 89 1009.0
20260506161513 15 255 12.9 24.1 0.15 0.43 0.43 90 1009.1
20260506160009 15 264 6.4 19.3 0.20 0.41 0.41 90 1008.8
20260506154511 15 244 4.8 17.7 0.23 0.41 0.41 90 1008.8
20260506153024 15 261 9.7 24.1 0.20 0.36 0.36 90 1009.6
20260506151526 15 215 11.3 17.7 0.15 0.28 0.28 90 1009.8
20260506150019 15 262 8.0 16.1 0.10 0.20 0.20 89 1009.8
20260506144519 15 252 8.0 16.1 0.13 0.18 0.18 90 1009.7
20260506143019 15 254 9.7 16.1 0.13 0.15 0.15 89 1009.5
20260506141512 15 221 6.4 14.5 0.13 0.13 0.13 88 1009.8
20260506140016 15 222 6.4 12.9 0.10 0.10 0.10 87 1009.7
20260506134525 15 249 6.4 12.9 0.05 0.05 0.05 86 1009.7
20260506133030 15 256 6.4 17.7 0.03 0.03 0.03 84 1009.7
20260506131524 16 241 8.0 14.5 0.00 0.00 0.00 83 1009.6
20260506130022 16 263 6.4 16.1 0.00 0.00 0.00 82 1009.8
20260506124522 16 236 9.7 17.7 0.00 0.00 0.00 80 1009.8
20260506123018 16 240 8.0 17.7 0.00 0.00 0.00 79 1010.0
20260506121513 16 240 11.3 20.9 0.00 0.00 0.00 79 1010.1
20260506120030 16 238 11.3 20.9 0.00 0.00 0.00 79 1009.7
20260506114536 16 253 12.9 22.5 0.00 0.00 0.00 79 1009.6
20260506113026 16 247 14.5 27.4 0.00 0.00 0.00 79 1009.6
20260506111525 16 278 12.9 20.9 0.00 0.00 0.00 79 1009.4
20260506110024 16 275 9.7 19.3 0.00 0.00 0.00 79 1009.3
20260506104519 16 274 8.0 22.5 0.00 0.00 0.00 79 1009.2
20260506103016 16 216 9.7 22.5 0.00 0.00 0.00 79 1009.2
20260506101517 16 252 12.9 24.1 0.00 0.00 0.00 78 1009.1
20260506100021 16 245 9.7 19.3 0.00 0.00 0.00 78 1009.1
20260506094507 16 242 12.9 19.3 0.00 0.00 0.00 77 1009.1
20260506093006 16 253 8.0 20.9 0.00 0.00 0.00 76 1009.1
20260506091503 17 200 9.7 24.1 0.00 0.00 0.00 75 1009.3
20260506090023 17 260 11.3 19.3 0.00 0.00 0.00 75 1009.3
20260506084520 17 208 8.0 17.7 0.00 0.00 0.00 75 1009.5
20260506083020 17 260 8.0 19.3 0.00 0.00 0.00 74 1009.4
20260506081515 17 188 8.0 14.5 0.00 0.00 0.00 73 1009.3
20260506073008 17 244 8.0 14.5 0.00 0.00 0.00 71 1009.6
20260506071524 17 220 9.7 16.1 0.00 0.00 0.00 71 1009.6
20260506061516 17 239 4.8 11.3 0.00 0.00 0.00 69 1010.1
20260506044530 17 257 4.8 9.7 0.00 0.00 0.00 65 1010.7
20260506043025 17 255 6.4 11.3 0.00 0.00 0.00 64 1010.7
20260506041517 17 261 6.4 11.3 0.00 0.00 0.00 63 1010.7
20260506040015 17 252 4.8 9.7 0.00 0.00 0.00 63 1010.7
20260506034528 17 238 4.8 8.0 0.00 0.00 0.00 61 1010.7
20260506033033 18 223 1.6 6.4 0.00 0.00 0.00 61 1010.7
20260506031533 18 237 4.8 8.0 0.00 0.00 0.00 61 1010.7
20260506030049 18 233 4.8 9.7 0.00 0.00 0.00 62 1010.7
20260506024528 18 224 4.8 6.4 0.00 0.00 0.00 61 1010.8
20260506023022 18 246 4.8 8.0 0.00 0.00 0.00 61 1010.8
20260506021521 18 253 4.8 6.4 0.00 0.00 0.00 61 1010.8